Back to catalog

COSMOS 2491 DEB

AlivePO
NORAD 45129·DEBRIS·🇷🇺 Russia

Launched Dec 25, 2013 from Plesetsk Cosmodrome

Loading…

Next Passes (next 24 hours)

TLE

AgingSource: Space-Track

Epoch: Sep 9, 2026, 05:00 UTC

1 45129U 13076AB  26252.20875264  .00002626  00000-0  12237-1 0  9991
2 45129  82.4424  56.1778 0197745 288.0008  69.9625 12.69773629169746

Track COSMOS 2491 DEB in real time with AllMySat

Download on the App Store